New Castle, PA

5:13 AM EDT on May 25, 2017 (GMT -0400)
New Castle Municipal

Weather History for KUCP - January, 2013

Change the Weather History Date:

Saturday, January 12, 2013

  Actual Average Record
Temperature  
Mean Temperature 53 °F -  
Max Temperature 59 °F 33 °F 62 °F (2017)
Min Temperature 47 °F 14 °F -5 °F (1968)
Degree Days  
Heating Degree Days 12    
Growing Degree Days 3 (Base 50)    
Moisture  
Dew Point 52 °F    
Average Humidity 94    
Maximum Humidity 100    
Minimum Humidity 77    
Precipitation  
Precipitation 0.01 in - - ()
Sea Level Pressure  
Sea Level Pressure 30.06 in    
Wind  
Wind Speed 3 mph (South)    
Max Wind Speed 9 mph    
Max Gust Speed -    
Visibility 6 miles    
Events Fog , Rain    
Averages and records for this station are not official NWS values.
T = Trace of Precipitation, MM = Missing Value Source: NWS Daily Summary

Daily Weather History Graph

Daily Weather History Graph

Search for Another Location

Airport or City:

Trip Planner

Search our weather history database for the weather conditions in past years. The results will help you decide how hot, cold, wet, or windy it might be!

Date:

Astronomy

Jan. 12, 2013 Rise Set
Actual Time 7:45 AM EST 5:15 PM EST
Civil Twilight 7:14 AM EST 5:45 PM EST
Nautical Twilight 6:40 AM EST 6:19 PM EST
Astronomical Twilight 6:07 AM EST 6:52 PM EST
Moon 8:02 AM EST (1/12) 6:43 PM EST (1/12)
Length of Visible Light 10h 30m
Length of Day
9h 29m
New Moon, 1% of the Moon is Illuminated
Jan 12
New Moon
Jan 18
First Quarter
Jan 26
Full
Feb 3
Last Quarter
Feb 10
New

Hourly Weather History & Observations

Time (EST) Temp. Dew Point Humidity Pressure Visibility Wind Dir Wind Speed Gust Speed Precip Events Conditions
12:56 AM 47.8 °F 47.8 °F 100% 30.05 in 0.2 mi Variable 5.8 mph - N/A Fog Fog
1:56 AM 47.8 °F 47.8 °F 100% 30.06 in 0.2 mi Calm Calm - N/A Fog Fog
2:56 AM 47.8 °F 47.8 °F 100% 30.07 in 0.2 mi Calm Calm - N/A Fog Fog
3:38 AM 48.2 °F 48.2 °F 100% 30.02 in 0.5 mi Variable 3.5 mph - N/A Fog Fog
3:56 AM 48.9 °F 48.9 °F 100% 30.07 in 0.2 mi Calm Calm - N/A Fog Fog
4:25 AM 50.0 °F 50.0 °F 100% 30.02 in 0.5 mi Variable 3.5 mph - N/A Fog Fog
4:56 AM 50.9 °F 50.9 °F 100% 30.07 in 0.8 mi Variable 3.5 mph - N/A   Overcast
5:02 AM 51.8 °F 51.8 °F 100% 30.02 in 1.2 mi South 4.6 mph - N/A   Overcast
5:14 AM 51.8 °F 51.8 °F 100% 30.02 in 1.5 mi Calm Calm - N/A   Overcast
5:35 AM 51.8 °F 51.8 °F 100% 30.02 in 2.0 mi Variable 4.6 mph - N/A   Overcast
5:56 AM 52.0 °F 52.0 °F 100% 30.08 in 3.0 mi Variable 4.6 mph - N/A   Overcast
6:12 AM 51.8 °F 51.8 °F 100% 30.03 in 5.0 mi South 3.5 mph - N/A   Overcast
6:21 AM 51.8 °F 51.8 °F 100% 30.03 in 5.0 mi Calm Calm - N/A   Overcast
6:56 AM 52.0 °F 52.0 °F 100% 30.09 in 6.0 mi Calm Calm - N/A   Mostly Cloudy
7:07 AM 51.8 °F 51.8 °F 100% 30.04 in 5.0 mi South 3.5 mph - N/A   Mostly Cloudy
7:56 AM 52.0 °F 52.0 °F 100% 30.10 in 4.0 mi Variable 4.6 mph - N/A   Mostly Cloudy
8:05 AM 51.8 °F 51.8 °F 100% 30.04 in 5.0 mi SSE 8.1 mph - N/A   Scattered Clouds
8:56 AM 52.0 °F 52.0 °F 100% 30.11 in 4.0 mi South 3.5 mph - N/A   Clear
9:56 AM 54.0 °F 54.0 °F 100% 30.12 in 9.0 mi SSW 5.8 mph - N/A   Partly Cloudy
10:56 AM 55.9 °F 54.9 °F 96% 30.12 in 10.0 mi SSW 5.8 mph - N/A   Mostly Cloudy
11:43 AM 57.2 °F 53.6 °F 88% 30.04 in 10.0 mi SW 6.9 mph - N/A   Mostly Cloudy
11:56 AM 57.9 °F 52.9 °F 83% 30.09 in 10.0 mi SW 8.1 mph - N/A   Overcast
12:56 PM 59.0 °F 52.9 °F 80% 30.07 in 10.0 mi SSW 9.2 mph - N/A   Overcast
1:56 PM 59.0 °F 52.9 °F 80% 30.08 in 10.0 mi SW 5.8 mph - N/A   Mostly Cloudy
2:46 PM 59.0 °F 51.8 °F 77% 30.04 in 10.0 mi South 4.6 mph - N/A   Scattered Clouds
2:56 PM 59.0 °F 52.0 °F 78% 30.09 in 10.0 mi SSW 6.9 mph - N/A   Scattered Clouds
3:56 PM 57.9 °F 52.9 °F 83% 30.09 in 10.0 mi Variable 3.5 mph - N/A   Clear
4:56 PM 56.8 °F 52.0 °F 84% 30.08 in 10.0 mi Variable 4.6 mph - N/A   Clear
5:56 PM 55.9 °F 52.0 °F 87% 30.08 in 10.0 mi Calm Calm - N/A   Clear
6:56 PM 54.9 °F 52.0 °F 90% 30.07 in 10.0 mi Calm Calm - N/A   Clear
7:56 PM 54.9 °F 52.0 °F 90% 30.06 in 10.0 mi Calm Calm - N/A   Partly Cloudy
8:56 PM 54.9 °F 52.0 °F 90% 30.05 in 10.0 mi Calm Calm - N/A   Partly Cloudy
9:56 PM 54.9 °F 52.0 °F 90% 30.02 in 10.0 mi SE 4.6 mph - N/A   Overcast
10:56 PM 54.0 °F 52.0 °F 93% 30.01 in 9.0 mi Calm Calm - N/A   Overcast
11:03 PM 55.4 °F 51.8 °F 88% 29.96 in 4.0 mi SE 5.8 mph - 0.01 in Rain Light Rain
11:56 PM 55.9 °F 52.9 °F 89% 29.99 in 10.0 mi SE 6.9 mph - 0.01 in   Overcast